Weather History for Tracy, MN

Change the Weather History Date:

Thursday, May 16, 2013

  Actual Average (KMML) Record (KMML)
Temperature  
Mean Temperature 68 °F -  
Max Temperature 83 °F 72 °F 94 °F (1987)
Min Temperature 53 °F 48 °F 30 °F (2014)
Cooling Degree Days 3    
Growing Degree Days 18 (Base 50)    
Moisture  
Dew Point 46 °F    
Average Humidity 48    
Maximum Humidity 90    
Minimum Humidity 22    
Precipitation  
Precipitation 0.03 in - - ()
Sea Level Pressure  
Sea Level Pressure 29.87 in    
Wind  
Wind Speed 1 mph (ESE)    
Max Wind Speed 10 mph    
Max Gust Speed 32 mph    
Visibility 10 miles    
Events Rain    
Averages and records for this station are not official NWS values.
T = Trace of Precipitation, MM = Missing Value Source: NWS Daily Summary

Daily Weather History Graph

Daily Weather History Graph

Search for Another Location

Airport:

Trip Planner

Search our weather history database for the weather conditions in past years. The results will help you decide how hot, cold, wet, or windy it might be!

Date:

Astronomy

May. 16, 2013 Rise Set
Actual Time 5:54 AM CDT 8:44 PM CDT
Civil Twilight 5:20 AM CDT 9:17 PM CDT
Nautical Twilight 4:37 AM CDT 10:00 PM CDT
Astronomical Twilight 3:48 AM CDT 10:51 PM CDT
Moon 11:32 AM CDT (5/16) 1:01 AM CDT (5/16)
Length of Visible Light 15h 57m
Length of Day
14h 49m
Waxing Crescent, 36% of the Moon is Illuminated
May 16
Waxing Crescent
May 17
First Quarter
May 24
Full
May 31
Last Quarter
Jun 8
New

Hourly Weather History & Observations

Time (CDT) Temp. Dew Point Humidity Pressure Visibility Wind Dir Wind Speed Gust Speed Precip Events Conditions
12:14 AM 61.7 °F 45.3 °F 55% 29.89 in 10.0 mi Calm Calm - N/A   Clear
12:33 AM 62.4 °F 45.0 °F 53% 29.89 in 10.0 mi Calm Calm - N/A   Clear
12:53 AM 60.1 °F 45.3 °F 58% 29.89 in 10.0 mi Calm Calm - N/A   Clear
1:13 AM 58.6 °F 45.0 °F 60% 29.89 in 10.0 mi Calm Calm - N/A   Clear
1:33 AM 57.7 °F 45.1 °F 63% 29.89 in 10.0 mi Calm Calm - N/A   Clear
1:54 AM 57.7 °F 45.5 °F 64% 29.89 in 10.0 mi Calm Calm - N/A   Clear
2:13 AM 57.4 °F 44.8 °F 63% 29.89 in 10.0 mi Calm Calm - N/A   Clear
2:33 AM 58.1 °F 44.6 °F 61% 29.89 in 10.0 mi Calm Calm - N/A   Clear
2:54 AM 58.5 °F 44.6 °F 60% 29.89 in 10.0 mi Calm Calm - N/A   Clear
3:13 AM 59.0 °F 44.4 °F 58% 29.89 in 10.0 mi Calm Calm - N/A   Clear
3:34 AM 58.1 °F 44.2 °F 60% 29.89 in 10.0 mi Calm Calm - N/A   Clear
3:53 AM 57.9 °F 44.2 °F 60% 29.89 in 10.0 mi Calm Calm - N/A   Clear
4:13 AM 55.6 °F 44.4 °F 66% 29.89 in 10.0 mi Calm Calm - N/A   Clear
4:33 AM 55.9 °F 44.2 °F 65% 29.90 in 10.0 mi Calm Calm - N/A   Clear
4:54 AM 55.4 °F 44.1 °F 66% 29.89 in 10.0 mi Calm Calm - N/A   Clear
5:12 AM 55.6 °F 44.1 °F 65% 29.90 in 10.0 mi Calm Calm - N/A   Clear
5:33 AM 56.8 °F 43.7 °F 61% 29.89 in 10.0 mi Calm Calm - N/A   Clear
5:53 AM 56.5 °F 43.5 °F 62% 29.90 in 10.0 mi Calm Calm - N/A   Clear
6:14 AM 55.6 °F 43.7 °F 64% 29.91 in 10.0 mi Calm Calm - N/A   Clear
6:34 AM 53.8 °F 44.1 °F 70% 29.91 in 10.0 mi Calm Calm - N/A   Clear
6:53 AM 56.1 °F 45.0 °F 66% 29.92 in 10.0 mi Calm Calm - N/A   Clear
7:14 AM 58.6 °F 46.6 °F 64% 29.92 in 10.0 mi Calm Calm - N/A   Clear
7:34 AM 61.9 °F 46.6 °F 57% 29.92 in 10.0 mi Calm Calm - N/A   Clear
7:53 AM 64.2 °F 47.1 °F 54% 29.92 in 10.0 mi Calm Calm - N/A   Clear
8:14 AM 67.3 °F 46.8 °F 48% 29.92 in 10.0 mi Calm Calm - N/A   Clear
8:34 AM 68.2 °F 44.6 °F 43% 29.91 in 10.0 mi Calm Calm - N/A   Clear
8:53 AM 68.9 °F 42.8 °F 39% 29.91 in 10.0 mi Calm Calm - N/A   Clear
9:14 AM 69.3 °F 44.6 °F 41% 29.92 in 10.0 mi Calm Calm - N/A   Clear
9:34 AM 70.5 °F 44.4 °F 39% 29.91 in 10.0 mi Calm Calm - N/A   Clear
9:54 AM 72.0 °F 45.1 °F 38% 29.91 in 10.0 mi Calm Calm - N/A   Clear
10:13 AM 73.2 °F 44.2 °F 35% 29.90 in 10.0 mi Calm Calm - N/A   Clear
10:33 AM 74.7 °F 42.4 °F 31% 29.90 in 10.0 mi ESE 3.5 mph - N/A   Clear
10:53 AM 76.1 °F 42.8 °F 30% 29.90 in 10.0 mi East 5.8 mph - N/A   Clear
11:14 AM 77.5 °F 43.2 °F 29% 29.89 in 10.0 mi Calm Calm - N/A   Clear
11:33 AM 78.3 °F 42.6 °F 28% 29.89 in 10.0 mi Calm Calm - N/A   Clear
11:53 AM 77.9 °F 41.5 °F 27% 29.88 in 10.0 mi Calm Calm - N/A   Clear
12:14 PM 80.1 °F 41.0 °F 25% 29.87 in 10.0 mi Calm Calm - N/A   Clear
12:33 PM 81.0 °F 42.1 °F 25% 29.87 in 10.0 mi Calm Calm - N/A   Clear
12:54 PM 81.9 °F 42.8 °F 25% 29.87 in 10.0 mi East 4.6 mph 16.1 mph N/A   Clear
1:13 PM 82.0 °F 42.3 °F 24% 29.86 in 10.0 mi Calm Calm - N/A   Clear
1:33 PM 82.4 °F 42.3 °F 24% 29.85 in 10.0 mi East 9.2 mph - N/A   Clear
1:53 PM 82.4 °F 43.0 °F 25% 29.85 in 10.0 mi Calm Calm - N/A   Clear
2:13 PM 82.6 °F 41.9 °F 24% 29.84 in 10.0 mi ESE 10.4 mph - N/A   Scattered Clouds
2:33 PM 83.3 °F 40.8 °F 22% 29.84 in 10.0 mi Calm Calm - N/A   Scattered Clouds
2:53 PM 83.5 °F 41.5 °F 23% 29.85 in 10.0 mi Calm Calm - N/A   Scattered Clouds
3:13 PM 83.3 °F 42.6 °F 24% 29.85 in 10.0 mi ESE 9.2 mph - N/A   Scattered Clouds
3:33 PM 82.9 °F 41.2 °F 23% 29.84 in 10.0 mi SE 4.6 mph - N/A   Scattered Clouds
3:54 PM 82.9 °F 40.5 °F 22% 29.84 in 10.0 mi Calm Calm - N/A   Clear
4:13 PM 82.4 °F 39.9 °F 22% 29.83 in 10.0 mi SSE 10.4 mph - N/A   Scattered Clouds
4:34 PM 81.5 °F 39.9 °F 23% 29.82 in 10.0 mi Calm Calm - N/A   Mostly Cloudy
5:13 PM 81.5 °F 39.4 °F 22% 29.81 in 10.0 mi Calm Calm - N/A   Scattered Clouds
5:33 PM 81.3 °F 38.7 °F 22% 29.81 in 10.0 mi Calm Calm - N/A   Scattered Clouds
5:53 PM 80.8 °F 39.4 °F 23% 29.81 in 10.0 mi Calm Calm - N/A   Scattered Clouds
6:13 PM 79.5 °F 41.9 °F 26% 29.80 in 10.0 mi Calm Calm - N/A   Scattered Clouds
6:34 PM 78.8 °F 42.3 °F 27% 29.81 in 10.0 mi Calm Calm - N/A   Mostly Cloudy
6:52 PM 77.9 °F 41.4 °F 27% 29.81 in 10.0 mi Calm Calm - N/A   Overcast
7:13 PM 78.8 °F 39.9 °F 25% 29.83 in 10.0 mi SSW 8.1 mph 32.2 mph N/A   Overcast
7:33 PM 70.9 °F 51.1 °F 49% 29.84 in 10.0 mi Calm Calm - N/A Rain Light Rain
7:54 PM 68.9 °F 52.5 °F 56% 29.85 in 10.0 mi Calm Calm - N/A Rain Light Rain
8:14 PM 67.3 °F 54.5 °F 63% 29.84 in 10.0 mi Calm Calm - N/A Rain Light Rain
8:33 PM 68.7 °F 52.9 °F 57% 29.84 in 10.0 mi Calm Calm - N/A   Overcast
8:54 PM 67.1 °F 53.8 °F 62% 29.84 in 10.0 mi Calm Calm - N/A Rain Light Rain
9:14 PM 65.8 °F 56.3 °F 71% 29.84 in 10.0 mi Calm Calm - N/A Rain Light Rain
9:34 PM 65.7 °F 54.9 °F 68% 29.85 in 10.0 mi Calm Calm - N/A   Overcast
9:53 PM 64.4 °F 56.3 °F 75% 29.87 in 10.0 mi Calm Calm - N/A Rain Light Rain
10:14 PM 64.0 °F 56.1 °F 75% 29.87 in 10.0 mi Calm Calm - N/A Rain Rain
10:34 PM 63.9 °F 56.1 °F 76% 29.87 in 10.0 mi Calm Calm - N/A Rain Light Rain
10:53 PM 63.0 °F 58.6 °F 86% 29.87 in 10.0 mi Calm Calm - N/A Rain Light Rain
11:14 PM 62.6 °F 57.9 °F 85% 29.87 in 10.0 mi Calm Calm - 0.01 in Rain Light Rain
11:33 PM 62.1 °F 59.0 °F 90% 29.86 in 10.0 mi Calm Calm - 0.02 in Rain Light Rain
11:53 PM 62.1 °F 57.7 °F 86% 29.87 in 10.0 mi Calm Calm - 0.03 in Rain Rain